#timestamp,LO_Frequency,Hit,StdDev 
1538640015.1,286046999.1,N
1538640016.0,286046999.1,N
1538640035.8,286046997.0,N
1538640055.6,286046996.5,N
1538640075.5,286046997.0,N
1538640095.3,286046997.2,N
1538640115.2,286046997.8,N
1538640135.0,286047000.8,N
1538640135.9,286047000.8,N
1538640155.8,286046999.8,N
1538640175.6,286047000.7,N
1538640195.5,286047001.5,N
1538640215.3,286047000.7,N
1538640235.1,286047000.4,N
1538640255.9,286046999.7,N
1538640275.7,286047000.4,N
1538640295.6,286046998.5,N
1538640315.4,286047000.9,N
1538640335.2,286047002.6,N
1538640355.1,286047000.0,N
1538640356.0,286047000.0,N
1538640375.8,286047003.9,N
1538640395.6,286047004.0,N
1538640415.5,286047002.3,N
1538640435.3,286047003.4,N
1538640455.2,286047006.9,Y
1538640475.9,286047006.9,P
1538640495.7,286047003.1,N
1538640515.6,286047005.2,N
1538640535.4,286047003.5,N
1538640555.2,286047005.0,N
1538640575.1,286047004.5,N
1538640576.0,286047004.5,N
1538640595.8,286047004.3,N
1538640615.7,286047004.2,N
1538640635.5,286047000.0,N
1538640655.3,286046998.2,N
1538640675.2,286047000.7,N
1538640695.0,286046999.4,N
1538640695.9,286046999.4,N
1538640715.8,286046999.4,N
1538640735.6,286047004.4,N
1538640755.4,286047004.1,N
1538640775.3,286047004.2,N
1538640795.1,286047004.5,N
1538640815.8,286047004.0,N
1538640835.7,286047001.8,N
1538640855.5,286047001.6,N
1538640875.3,286047001.5,N
1538640895.2,286046998.6,N
1538640915.0,286046998.4,N
1538640915.9,286046998.4,N
1538640935.8,286046998.6,N
1538640955.6,286046999.4,N
1538640975.4,286046997.1,N
1538640995.3,286046996.9,N
1538641015.1,286046999.1,N
1538641035.8,286046998.8,N
1538641055.7,286046999.5,N
1538641075.5,286046998.3,N
1538641095.4,286046997.6,N
1538641115.2,286046996.5,N
1538641135.0,286046999.1,N
1538641135.9,286046999.1,N
1538641155.8,286046997.3,N
1538641175.6,286046997.8,N
1538641195.4,286047000.7,N
1538641215.3,286047004.2,N
1538641235.1,286047004.1,N
1538641255.8,286047000.6,N
1538641275.7,286047001.1,N
1538641295.5,286046998.9,N
1538641315.4,286046998.5,N
1538641365.2,286047003.9,E
1538641375.1,286047000.2,N
1538641395.9,286046997.1,P
1538641415.7,286046996.6,N
1538641435.6,286046996.9,N
1538641455.4,286047001.0,N
1538641475.2,286046997.0,N
1538641495.1,286046999.2,N
1538641496.0,286046999.2,N
1538641515.8,286046997.4,N
1538641535.6,286046996.1,N
1538641585.5,286046995.7,E
1538641595.4,286046997.8,N
1538641615.3,286046998.8,P
1538641635.1,286047003.8,P
1538641655.8,286047002.4,N
1538641675.7,286047000.9,N
1538641695.5,286047001.3,N
1538641715.3,286047004.3,N
1538641735.2,286047000.0,N
1538641755.0,286046998.4,N
1538641755.9,286046998.4,N
1538641775.8,286046999.5,N
1538641795.6,286046999.5,N
1538641815.4,286046996.6,N
1538641835.3,286046999.6,N
1538641855.1,286046999.6,N
1538641875.8,286047001.1,N
1538641895.7,286046998.5,N
1538641915.5,286046996.6,N
1538641935.4,286046998.2,N
1538641955.2,286047001.9,N
1538641975.0,286047005.9,N
1538641975.9,286047005.9,N
1538641995.8,286047004.1,N
1538642015.6,286047003.6,N
1538642035.8,286047002.9,N
1538642055.7,286047001.5,N
1538642075.5,286047004.2,N
1538642095.3,286047002.4,N
1538642115.2,286047002.0,N
1538642135.0,286047005.5,N
1538642135.9,286047005.5,N
1538642155.8,286047004.4,N
1538642175.6,286047004.2,N
1538642195.4,286047001.3,N
1538642215.3,286047000.5,N
1538642235.1,286046998.5,N
1538642255.8,286047000.1,N
1538642275.7,286047000.6,N
1538642295.5,286046998.7,N
1538642315.4,286046998.8,N
1538642335.2,286047002.0,N
1538642355.0,286046999.8,N
1538642355.9,286046999.8,N
1538642375.8,286047002.8,N
1538642395.6,286046998.3,N
1538642415.5,286046999.1,N
1538642435.3,286046999.5,N
1538642455.1,286046999.9,N
1538642475.9,286047000.9,N
1538642495.7,286046998.6,N
1538642515.5,286047002.6,N
1538642535.4,286047003.7,N
1538642555.2,286047002.7,N
1538642575.1,286047000.2,N
1538642576.0,286047000.2,N
1538642595.8,286046999.3,N
1538642615.6,286047001.1,N
1538642635.5,286046998.4,N
1538642655.3,286047002.7,N
1538642675.1,286047000.3,N
1538642695.9,286047000.8,N
1538642715.7,286047000.6,N
1538642735.6,286047000.4,N
1538642755.4,286047000.2,N
1538642775.2,286047001.0,N
1538642795.1,286047001.8,N
1538642796.0,286047001.8,N
1538642815.8,286047001.0,N
1538642835.6,286047000.7,N
1538642855.5,286046998.9,N
1538642875.3,286046998.5,N
1538642895.2,286046998.9,N
1538642915.9,286046996.9,N
1538642935.7,286047000.5,N
1538642955.6,286046998.6,N
1538642975.4,286046999.2,N
1538642995.2,286047000.2,N
1538643015.1,286046998.1,N
1538643016.0,286046998.1,N
1538643035.8,286047000.8,N
1538643055.7,286046998.4,N
1538643075.5,286046998.6,N
1538643095.3,286046998.6,N
1538643115.2,286047000.2,N
1538643135.9,286047002.4,N
1538643155.7,286046998.6,N
1538643175.6,286046999.1,N
1538643195.4,286046998.3,N
1538643215.3,286047001.2,N
1538643235.1,286047000.3,N
1538643236.0,286047000.3,N
1538643255.8,286047002.2,N
1538643275.7,286046998.7,N
1538643295.5,286047000.7,N
1538643315.3,286047000.8,N
1538643335.2,286046998.8,N
1538643355.0,286046998.7,N
1538643355.9,286046998.7,N
1538643375.8,286047000.8,N
1538643395.6,286046999.1,N
1538643415.4,286046998.6,N
1538643435.3,286047001.1,N
1538643455.1,286047001.6,N
1538643475.9,286047004.2,Y
1538643495.7,286047002.7,P
1538643515.5,286047003.3,N
1538643535.4,286047005.9,P
1538643555.2,286047004.2,N
1538643575.0,286047002.1,N
1538643576.0,286047002.1,N
1538643595.8,286047002.0,N
